• En España
  • Lista de países
  • Para 7 días
  • Temperatura del agua
  • Mapa Satelital
  • El tiempo en el mapa
  • Informadores
  • user-avatar
    Iniciar sesión

    Tiempo cada hora Kolodino

    Hoy, 16 Julio, Lunes

    Tiempo Temperatura Precipitaciones Viento Presión Humedad
    00:00 +19°C° 0,1 mm 1 mps 739 mmHg 95%
    01:00 +19°C° 0,1 mm 1 mps 739 mmHg 96%
    02:00 +18°C° 0 mm 1 mps 740 mmHg 96%
    03:00 +18°C° 0,1 mm 2 mps 740 mmHg 96%
    04:00 +18°C° 0,1 mm 2 mps 740 mmHg 96%
    05:00 +18°C° 0,1 mm 2 mps 740 mmHg 96%
    06:00 +20°C° 0 mm 2 mps 740 mmHg 91%
    07:00 +21°C° 0 mm 2 mps 740 mmHg 86%
    08:00 +24°C° 0 mm 3 mps 740 mmHg 79%
    09:00 +25°C° 0,4 mm 3 mps 740 mmHg 75%
    10:00 +26°C° 0,4 mm 3 mps 740 mmHg 71%
    11:00 +27°C° 0,4 mm 4 mps 740 mmHg 67%
    12:00 +28°C° 0,4 mm 4 mps 739 mmHg 64%
    13:00 +28°C° 0,4 mm 4 mps 739 mmHg 64%
    14:00 +28°C° 0,4 mm 4 mps 739 mmHg 64%
    15:00 +28°C° 0,1 mm 3 mps 739 mmHg 65%
    16:00 +28°C° 0,1 mm 3 mps 739 mmHg 67%
    17:00 +27°C° 0,1 mm 3 mps 739 mmHg 68%
    18:00 +26°C° 0 mm 3 mps 739 mmHg 73%
    19:00 +24°C° 0 mm 3 mps 739 mmHg 79%
    20:00 +23°C° 0 mm 2 mps 739 mmHg 85%
    21:00 +21°C° 0 mm 2 mps 739 mmHg 87%
    22:00 +20°C° 0 mm 3 mps 739 mmHg 89%
    23:00 +20°C° 0 mm 3 mps 739 mmHg 91%

    Mañana, 17 Julio, Martes

    Tiempo Temperatura Precipitaciones Viento Presión Humedad
    00:00 +19°C° 0 mm 3 mps 739 mmHg 92%
    01:00 +19°C° 0 mm 3 mps 739 mmHg 94%
    02:00 +18°C° 0 mm 3 mps 739 mmHg 95%
    03:00 +19°C° 0 mm 3 mps 739 mmHg 94%
    04:00 +19°C° 0 mm 3 mps 739 mmHg 93%
    05:00 +19°C° 0 mm 3 mps 739 mmHg 91%
    06:00 +21°C° 0 mm 4 mps 739 mmHg 85%
    07:00 +23°C° 0 mm 4 mps 739 mmHg 78%
    08:00 +25°C° 0 mm 5 mps 739 mmHg 71%
    09:00 +26°C° 0 mm 5 mps 738 mmHg 67%
    10:00 +27°C° 0 mm 5 mps 738 mmHg 63%
    11:00 +29°C° 0 mm 5 mps 738 mmHg 58%
    12:00 +29°C° 0 mm 6 mps 738 mmHg 57%
    13:00 +29°C° 0 mm 6 mps 738 mmHg 55%
    14:00 +29°C° 0 mm 6 mps 737 mmHg 54%
    15:00 +29°C° 0 mm 5 mps 737 mmHg 56%
    16:00 +28°C° 0 mm 5 mps 737 mmHg 58%
    17:00 +28°C° 0 mm 5 mps 737 mmHg 60%
    18:00 +26°C° 0 mm 4 mps 737 mmHg 66%
    19:00 +25°C° 0 mm 4 mps 737 mmHg 72%
    20:00 +22°C° 0 mm 3 mps 737 mmHg 78%
    21:00 +22°C° 0 mm 3 mps 737 mmHg 78%
    22:00 +21°C° 0 mm 3 mps 737 mmHg 79%
    23:00 +21°C° 0 mm 3 mps 737 mmHg 79%

    Pasado mañana, 18 Julio, Miércoles

    Tiempo Temperatura Precipitaciones Viento Presión Humedad
    00:00 +20°C° 0 mm 3 mps 736 mmHg 79%
    01:00 +20°C° 0 mm 4 mps 736 mmHg 79%
    02:00 +20°C° 0 mm 4 mps 736 mmHg 79%
    03:00 +20°C° 0,4 mm 4 mps 736 mmHg 83%
    04:00 +19°C° 0,4 mm 4 mps 736 mmHg 86%
    05:00 +19°C° 0,4 mm 4 mps 736 mmHg 90%
    06:00 +20°C° 0,5 mm 4 mps 736 mmHg 89%
    07:00 +20°C° 0,5 mm 4 mps 736 mmHg 88%
    08:00 +21°C° 0,5 mm 5 mps 736 mmHg 87%
    09:00 +22°C° 0,4 mm 5 mps 736 mmHg 84%
    10:00 +23°C° 0,4 mm 5 mps 736 mmHg 81%
    11:00 +25°C° 0,4 mm 5 mps 736 mmHg 78%
    12:00 +25°C° 1,1 mm 5 mps 736 mmHg 79%
    13:00 +25°C° 1,1 mm 5 mps 736 mmHg 80%
    14:00 +25°C° 1,1 mm 5 mps 736 mmHg 81%
    15:00 +23°C° 0,7 mm 5 mps 736 mmHg 83%
    16:00 +23°C° 0,7 mm 5 mps 735 mmHg 85%
    17:00 +22°C° 0,7 mm 4 mps 735 mmHg 87%
    18:00 +21°C° 0,2 mm 4 mps 735 mmHg 89%
    19:00 +20°C° 0,2 mm 4 mps 735 mmHg 91%
    20:00 +19°C° 0,2 mm 4 mps 735 mmHg 94%
    21:00 +19°C° 0 mm 4 mps 735 mmHg 94%
    22:00 +19°C° 0 mm 4 mps 735 mmHg 95%
    23:00 +19°C° 0 mm 4 mps 735 mmHg 95%

    19 Julio, Jueves

    Tiempo Temperatura Precipitaciones Viento Presión Humedad
    00:00 +19°C° 0 mm 4 mps 735 mmHg 95%
    01:00 +19°C° 0 mm 4 mps 735 mmHg 96%
    02:00 +19°C° 0 mm 4 mps 735 mmHg 96%
    03:00 +19°C° 0,1 mm 4 mps 735 mmHg 96%
    04:00 +19°C° 0,1 mm 4 mps 735 mmHg 95%
    05:00 +19°C° 0,1 mm 4 mps 735 mmHg 95%
    06:00 +19°C° 0,1 mm 4 mps 735 mmHg 95%
    07:00 +19°C° 0,1 mm 4 mps 735 mmHg 94%
    08:00 +19°C° 0,1 mm 4 mps 735 mmHg 93%
    09:00 +19°C° 0,1 mm 4 mps 735 mmHg 92%
    10:00 +20°C° 0,1 mm 4 mps 735 mmHg 90%
    11:00 +20°C° 0,1 mm 4 mps 736 mmHg 88%
    12:00 +21°C° 0,2 mm 4 mps 735 mmHg 85%
    13:00 +21°C° 0,2 mm 4 mps 735 mmHg 81%
    14:00 +22°C° 0,2 mm 4 mps 735 mmHg 78%
    15:00 +22°C° 0,5 mm 4 mps 735 mmHg 81%
    16:00 +22°C° 0,5 mm 4 mps 735 mmHg 84%
    17:00 +22°C° 0,5 mm 4 mps 735 mmHg 86%
    18:00 +21°C° 0,4 mm 3 mps 735 mmHg 89%
    19:00 +20°C° 0,4 mm 3 mps 735 mmHg 93%
    20:00 +19°C° 0,4 mm 3 mps 735 mmHg 96%
    21:00 +19°C° 0,1 mm 3 mps 735 mmHg 96%
    22:00 +19°C° 0,1 mm 3 mps 735 mmHg 97%
    23:00 +18°C° 0,1 mm 3 mps 734 mmHg 98%

    20 Julio, Viernes

    Tiempo Temperatura Precipitaciones Viento Presión Humedad
    00:00 +18°C° 0,1 mm 3 mps 734 mmHg 98%
    01:00 +19°C° 0,1 mm 3 mps 734 mmHg 98%
    02:00 +19°C° 0,1 mm 3 mps 734 mmHg 98%
    03:00 +19°C° 0,1 mm 3 mps 734 mmHg 98%
    04:00 +19°C° 0,1 mm 3 mps 734 mmHg 98%
    05:00 +19°C° 0,1 mm 3 mps 734 mmHg 98%
    06:00 +19°C° 0,1 mm 2 mps 734 mmHg 98%
    07:00 +19°C° 0,1 mm 2 mps 735 mmHg 98%
    08:00 +19°C° 0,1 mm 2 mps 735 mmHg 98%
    09:00 +20°C° 0,2 mm 2 mps 735 mmHg 97%
    10:00 +20°C° 0,2 mm 2 mps 735 mmHg 96%
    11:00 +21°C° 0,2 mm 2 mps 735 mmHg 95%
    12:00 +23°C° 0,3 mm 2 mps 735 mmHg 91%
    13:00 +24°C° 0,3 mm 3 mps 735 mmHg 87%
    14:00 +26°C° 0,3 mm 3 mps 735 mmHg 83%
    15:00 +25°C° 0,4 mm 3 mps 735 mmHg 84%
    16:00 +25°C° 0,4 mm 3 mps 735 mmHg 86%
    17:00 +25°C° 0,4 mm 3 mps 735 mmHg 88%
    18:00 +24°C° 0,1 mm 2 mps 735 mmHg 90%
    19:00 +23°C° 0,1 mm 2 mps 734 mmHg 93%
    20:00 +21°C° 0,1 mm 2 mps 734 mmHg 96%
    21:00 +21°C° 0 mm 2 mps 735 mmHg 96%
    22:00 +21°C° 0 mm 1 mps 735 mmHg 97%
    23:00 +21°C° 0 mm 1 mps 735 mmHg 97%

    21 Julio, Sábado

    Tiempo Temperatura Precipitaciones Viento Presión Humedad
    00:00 +19°C° 0 mm 2 mps 735 mmHg 98%
    01:00 +19°C° 0 mm 2 mps 735 mmHg 98%
    02:00 +19°C° 0 mm 2 mps 735 mmHg 98%
    03:00 +19°C° 0,2 mm 2 mps 735 mmHg 98%
    04:00 +19°C° 0,2 mm 2 mps 735 mmHg 97%
    05:00 +20°C° 0,2 mm 2 mps 735 mmHg 97%
    06:00 +21°C° 0,2 mm 2 mps 735 mmHg 93%
    07:00 +23°C° 0,2 mm 2 mps 735 mmHg 88%
    08:00 +25°C° 0,2 mm 3 mps 735 mmHg 84%
    09:00 +26°C° 0,1 mm 3 mps 735 mmHg 78%
    10:00 +27°C° 0,1 mm 3 mps 735 mmHg 72%
    11:00 +28°C° 0,1 mm 3 mps 735 mmHg 66%
    12:00 +28°C° 0,5 mm 3 mps 735 mmHg 68%
    13:00 +28°C° 0,5 mm 3 mps 735 mmHg 69%
    14:00 +28°C° 0,5 mm 3 mps 735 mmHg 71%
    15:00 +28°C° 0,7 mm 3 mps 735 mmHg 74%
    16:00 +27°C° 0,7 mm 3 mps 735 mmHg 78%
    17:00 +27°C° 0,7 mm 3 mps 735 mmHg 81%
    18:00 +26°C° 0,1 mm 2 mps 735 mmHg 85%
    19:00 +24°C° 0,1 mm 2 mps 735 mmHg 89%
    20:00 +23°C° 0,1 mm 2 mps 734 mmHg 93%
    21:00 +21°C° 0 mm 2 mps 734 mmHg 94%
    22:00 +20°C° 0 mm 2 mps 734 mmHg 95%
    23:00 +20°C° 0 mm 2 mps 735 mmHg 96%
    Mostrar más